Simultaneous Nadir Overpasses (SNOs) Predictions

Prediction of SNOs between GOES-15 and TERRA Satellite Orbit:

Table of predicted SNOs for the next 14.0 days since TLE Epoch: 6/24/2012
Index Date Time (GOES-15) GOES-15 Lat,Lon TERRA Lat,Lon Distance(km) Time Diff (sec)
1 06/24/2012 19:12:36 -0.04,-135.06 -0.88,-131.16 443.84 80
2 06/25/2012 07:36:39 0.01,-135.07 -0.25,-136.35 144.53 80
3 06/27/2012 07:21:49 0.02,-135.13 0.40,-133.40 196.55 80
4 06/27/2012 19:45:44 0.02,-135.14 0.75,-138.55 387.77 80
5 06/29/2012 19:33:34 0.01,-135.18 0.10,-135.60 47.58 80
6 07/01/2012 19:18:44 0.01,-135.22 -0.56,-132.66 291.74 80
7 07/02/2012 07:42:47 -0.04,-135.22 -0.62,-137.83 297.02 80
8 07/04/2012 07:27:57 -0.03,-135.25 0.04,-134.89 41.68 80
9 07/06/2012 07:15:47 -0.02,-135.28 0.71,-131.94 380.30 80
10 07/06/2012 19:39:42 0.05,-135.29 0.43,-137.09 204.73 80




NCC Satellite Simultaneous Nadir Overpasses (SNOs) Prediction Service
